Dyersburg, TN

2:01 AM CST on December 10, 2019 (GMT -0600)
Dyersburg Municipal

Weather History for KDYR - October, 2019

Change the Weather History Date:

Tuesday, October 8, 2019

  Actual Average Record
Temperature  
Mean Temperature 63 °F -  
Max Temperature 77 °F 71 °F 91 °F (2007)
Min Temperature 51 °F 51 °F 33 °F (2000)
Degree Days  
Heating Degree Days 2    
Growing Degree Days 13 (Base 50)    
Moisture  
Dew Point 48 °F    
Average Humidity 65    
Maximum Humidity 97    
Minimum Humidity 32    
Precipitation  
Precipitation 0.00 in - - ()
Sea Level Pressure  
Sea Level Pressure 30.15 in    
Wind  
Wind Speed 5 mph ()    
Max Wind Speed 14 mph    
Max Gust Speed 18 mph    
Visibility 9.9 miles    
Events      
Averages and records for this station are not official NWS values.
T = Trace of Precipitation, MM = Missing Value Source: Averaged Metar Reports

Daily Weather History Graph

Daily Weather History Graph

Search for Another Location

Airport or City:

Astronomy

Oct. 08, 2019 Rise Set
Actual Time 6:58 AM CDT 6:31 PM CDT
Civil Twilight 6:32 AM CDT 6:57 PM CDT
Nautical Twilight 6:02 AM CDT 7:26 PM CDT
Astronomical Twilight 5:33 AM CDT 7:56 PM CDT
Moon 4:19 PM CDT (10/8) 1:59 AM CDT (10/8)
Length of Visible Light 12h 24m
Length of Day
11h 33m
Waxing Gibbous, 78% of the Moon is Illuminated
Oct 8
Waxing Gibbous
Oct 13
Full
Oct 21
Last Quarter
Oct 27
New
Nov 4
First Quarter

Hourly Weather History & Observations

Time (CDT) Temp. Dew Point Humidity Pressure Visibility Wind Dir Wind Speed Gust Speed Precip Events Conditions
12:56 AM 53.1 °F 51.1 °F 93% 30.19 in 10.0 mi Calm Calm - N/A   Clear
1:56 AM 53.1 °F 51.1 °F 93% 30.19 in 10.0 mi Calm Calm - N/A   Clear
2:56 AM 52.0 °F 51.1 °F 97% 30.17 in 10.0 mi NNE 3.5 mph - N/A   Clear
3:56 AM 51.1 °F 50.0 °F 96% 30.18 in 10.0 mi North 3.5 mph - N/A   Clear
4:56 AM 51.1 °F 48.9 °F 92% 30.19 in 10.0 mi NE 3.5 mph - N/A   Clear
5:56 AM 51.1 °F 48.9 °F 92% 30.19 in 8.0 mi NE 4.6 mph - N/A   Clear
6:56 AM 51.1 °F 48.9 °F 92% 30.19 in 10.0 mi NE 5.8 mph - N/A   Clear
7:56 AM 53.1 °F 50.0 °F 89% 30.19 in 10.0 mi NE 6.9 mph - N/A   Clear
8:56 AM 57.9 °F 52.0 °F 81% 30.20 in 10.0 mi NE 6.9 mph - N/A   Clear
9:56 AM 62.1 °F 50.0 °F 65% 30.20 in 10.0 mi NE 13.8 mph - N/A   Clear
10:56 AM 66.9 °F 48.0 °F 51% 30.20 in 10.0 mi NE 11.5 mph - N/A   Clear
11:56 AM 71.1 °F 48.0 °F 44% 30.17 in 10.0 mi NNE 12.7 mph 17.3 mph N/A   Clear
12:56 PM 73.0 °F 46.0 °F 38% 30.15 in 10.0 mi ENE 9.2 mph 18.4 mph N/A   Clear
1:56 PM 75.0 °F 46.9 °F 37% 30.12 in 10.0 mi NNE 6.9 mph - N/A   Clear
2:56 PM 75.9 °F 45.0 °F 33% 30.11 in 10.0 mi NNE 11.5 mph - N/A   Clear
3:56 PM 75.9 °F 44.1 °F 32% 30.09 in 10.0 mi NE 11.5 mph - N/A   Clear
4:56 PM 75.9 °F 44.1 °F 32% 30.09 in 10.0 mi NNE 6.9 mph - N/A   Clear
5:56 PM 72.0 °F 45.0 °F 38% 30.09 in 10.0 mi NNE 9.2 mph - N/A   Clear
6:56 PM 64.9 °F 46.0 °F 50% 30.09 in 10.0 mi NNE 4.6 mph - N/A   Clear
7:56 PM 62.1 °F 46.0 °F 56% 30.10 in 10.0 mi NE 3.5 mph - N/A   Clear
8:56 PM 60.1 °F 48.0 °F 64% 30.10 in 10.0 mi ENE 4.6 mph - N/A   Clear
9:56 PM 60.1 °F 46.9 °F 62% 30.11 in 10.0 mi ENE 4.6 mph - N/A   Clear
10:56 PM 59.0 °F 46.9 °F 64% 30.10 in 10.0 mi ENE 3.5 mph - N/A   Clear
11:56 PM 57.9 °F 48.0 °F 70% 30.10 in 10.0 mi ENE 3.5 mph - N/A   Clear